User: anonymous   Login
Location: Unspecified
(0.0000°N, 0.0000°E)
Time: 21:55:12
(UTC+00:00)
Language:

STARLINK-35096 - Orbit

View from above orbital plane
View from above orbital plane
View from above satellite
View from above satellite

Ground track
Ground track

The orbit is defined by the following mean orbital elements,

1 65479U          26145.60353075 +.00000000 +00000-0 +86165-2 0 00009
2 65479  53.1576 260.6245 0001711 170.3597 189.7438 15.31564260    00
Epoch (UTC): 25 May 2026 14:29:05
Eccentricity: 0.0001711
inclination: 53.1576°
perigee height: 470 km
apogee height: 472 km
right ascension of ascending node: 260.6245°
argument of perigee: 170.3597°
revolutions per day: 15.31564260
mean anomaly at epoch: 189.7438°

The dashed part of the orbit path shows where the satellite is in the earth's shadow,  

DLR